Regional Weather Roundup
Issued by NWS Charleston, SC

Current Version | Previous Version | Graphics & Text | Print | Product List | Glossary On
Versions: 1 2 3 4 5 6 7 8 9 10 11 12 13 14 15 16 17 18 19 20 21 22 23 24 25 26 27 28 29 30 31 32 33 34 35 36 37 38 39 40 41 42 43 44 45 46 47 48 49 50
669
ASUS42 KCHS 170427
RWRCHS

REGIONAL WEATHER ROUNDUP
NATIONAL WEATHER SERVICE CHARLESTON SC
1100 PM EST MON JAN 16 2017

NOTE: "FAIR" INDICATES FEW OR NO CLOUDS BELOW 12,000 FEET WITH NO
SIGNIFICANT WEATHER AND/OR OBSTRUCTIONS TO VISIBILITY.

NOT ALL STATIONS ARE QUALITY CONTROLLED. USE DATA WITH CAUTION...
ESPECIALLY DEWPOINT OBSERVATIONS.

SCZ027-030-031-034>040-042>050-170500-
...SOUTHEAST SOUTH CAROLINA...

CITY           SKY/WX    TMP DP  RH WIND       PRES   REMARKS
N CHARLESTON   MOCLDY    56  52  86 E3        30.30F
WATERFRONT PRK   N/A     56  54  93 VRB2      30.30F
MOUNT PLEASANT LGT RAIN  55  54  94 CALM      30.30F
JOHNS ISLAND   MOCLDY    55  54  94 E6        30.30F
PINOPOLIS        N/A     55  55 100 CALM      30.22F
MONCKS CORNER  FAIR      52  50  93 CALM      30.31S FOG
SUMMERVILLE    MOCLDY   N/A N/A N/A CALM      30.32S
BEAUFORT MCAS  CLOUDY    58  56  93 SE3       30.30S
BEAUFORT ARPT  FAIR      55  54  94 E5        30.30S
HILTON HEAD IS PTCLDY    55  55 100 NE6       30.31S
WALTERBORO     CLOUDY    61 N/A N/A E3        30.31F HAZE
ALLENDALE      FOG       61  59  94 CALM      30.29S VSB 3/4

...SOUTHERN MIDLANDS AND PEE DEE...

CITY           SKY/WX    TMP DP  RH WIND       PRES   REMARKS
GEORGETOWN     FAIR      52  50  93 E3        30.32S
KINGSTREE      CLOUDY    52  50  93 CALM      30.31F
ORANGEBURG     FOG       56  55  97 CALM      30.31S VSB 1/2
BARNWELL       FOG       59  59 100 CALM      30.31S VSB 1/4
AIKEN          FOG       54  54 100 SE3       30.33S VSB 3/4
MANNING        CLOUDY    54  52  94 CALM      30.31S FOG
COLUMBIA       FOG       54  53  97 E6        30.30F VSB 1/4
SUMTER         FOG       52  51  97 E3        30.29F VSB 1/2
FLORENCE       CLOUDY    53  51  93 NE3       30.32F
MYRTLE BEACH   MOCLDY    55  48  76 E6        30.32F
N MYRTLE BEACH CLOUDY    53  51  93 NE5       30.31F

$$

GAZ063-065-086>088-099>101-113>116-118-119-134>141-150-170500-
...SOUTHEAST GEORGIA...

CITY           SKY/WX    TMP DP  RH WIND       PRES   REMARKS
SAVANNAH ARPT  FOG       58  56  93 E8        30.30F VSB 1
HUNTER AAF     CLOUDY    57  57 100 E6        30.28F
FORT STEWART   CLOUDY    57  57 100 E3        30.27F FOG
STATESBORO     CLOUDY    62  62 100 SE5       30.30S FOG
SYLVANIA       CLOUDY   N/A N/A N/A CALM      30.30S FOG
CLAXTON        CLOUDY   N/A N/A N/A CALM      30.29S

...CSRA...CENTRAL AND FAR SOUTHEAST GEORGIA...

CITY           SKY/WX    TMP DP  RH WIND       PRES   REMARKS
THOMSON        CLOUDY    59  59 100 SE3       30.33S
AUGUSTA-BUSH   CLOUDY    59  56  89 SE3       30.29S
AUGUSTA-DANIEL CLOUDY    58  54  86 E5        30.30R
SWAINSBORO     FAIR      61  59  94 SE8       30.29S
VIDALIA        PTCLDY    61  61 100 CALM      30.29R
EASTMAN        FAIR      56  54  93 CALM      30.29S
HAZLEHURST     FAIR      62  60  94 SE3       30.26S
ALMA           MOCLDY    62  60  93 SE6       30.27F
WAYCROSS       CLEAR     63  63 100 SE7       30.28S
JESUP          FOG       61  57  88 S3        30.29F VSB 3/4
BAXLEY         CLOUDY    61  61 100 SE3       30.27F
BRUNSWICK      FOG       61  61 100 NE5       30.30F VSB 1/4
SAINT SIMONS   FOG       60  60 100 NE5       30.28F VSB 1/4

$$

SCZ027-028-034-036>038-045-046-048>050-GAZ119-141-170500-
...LAKE AND SUPPLEMENTAL COASTAL OBSERVATIONS...

STATION/POSITION TIME  TEMP    WIND        PRES    WAVE   SWELL
                       AIR SEA DIR/SP/G            HT/PER HT/PER/DIR
                 (UTC) (F)     (DEG/KT/KT) (MB)    (FT/S) (FT/S/D)
WINYAH BAY       0345   54      60/  7     1026.0S
LAKE MURRAY      0330   53      80/  4/  6 1025.7F
ACE BASIN NERRS  0345   57      50/  2     1026.0S
FORT PULASKI     0400   56 56   50/  4/  5 1026.3
SAPELO ISLAND    0400   60     360/  4     1026.0

$$

ANZ835-935-AMZ111-154-330-350-352-354-370-450-454-472-170500-
...C-MAN AND BUOY OBSERVATIONS...

STATION/POSITION TIME  TEMP    WIND        PRES    WAVE   SWELL
                       AIR SEA DIR/SP/G            HT/PER HT/PER/DIR
                 (UTC) (F)     (DEG/KT/KT) (MB)    (FT/S) (FT/S/D)
BUOY 41004       0350   69 70   60/ 10/ 12 1025.2F   4/ 6   3/ 50/ 6
BUOY 41008       0350   61 59   90/  6/  6 1025.2F   3/ 5   3/ 70/ 5
FOLLY BEACH CMAN 0400   55      60/  9/ 10 1026.5F
CAPERS NEARSHORE 0408   54 54   60/  8/ 12 1025.8F
FRIPP NEARSHORE  0408   57 56   70/ 10/ 12 1025.6F


STATION/POSITION TIME  TEMP    WIND        PRES    WAVE   SWELL
                       AIR SEA DIR/SP/G            HT/PER HT/PER/DIR
                 (UTC) (F)     (DEG/KT/KT) (MB)    (FT/S) (FT/S/D)
5E ST. MARYS GA  0400      61                N/A     3/10   2/ 90/11
FRYING PAN BUOY  0410   66 70   50/ 10/ 14 1026.0
BUOY 41025       0350   55 73   10/ 12/ 14 1026.2F   3/ 8   2/ 90/ 8
CAPE LOOKOUT NC  0400   49      10/  6/  7 1026.4F
BUOY 41002       0350   70 71  150/ 10/ 12 1026.4F   4/ 8   3/ 30/ 8
BUOY 41010       NOT AVBL
ST AUGUSTINE FL  0400   66 65  350/  2/  2 1026.3R


$$




USA.gov is the U.S. government's official web portal to all federal, state and local government web resources and services.